    Observer details:
    118 Astronomical and Geophysical Observatory, Modra.  Observer S. Gajdos.
        0.6-m f/5.5 reflector + CCD.
    203 GiaGa Observatory.  Observers S. Foglia, G. Galli.  Measurer G. Galli.
        0.36-m f/5.76 Schmidt-Cassegrain + CCD.
    204 Schiaparelli Observatory.  Observer L. Buzzi.  0.84-m f/3.5 reflector +
        CCD.
    595 Farra d'Isonzo.  Observer E. Pettarin.  0.40-m f/5.15 reflector + CCD.
    673 Table Mountain Observatory, Wrightwood.  Observer J. Pittichova.  1.0-m
        f/15 reflector + CCD.
    958 Observatoire de Dax.  Observer P. Dupouy.  0.51-m f/6 reflector + CCD.
    A17 Guidestar Observatory, Weinheim.  Observers M. Emmerich, S. Melchert.
        0.36-m f/6 Schmidt-Cassegrain + CCD.
    B49 Paus Observatory, Sabadell.  Observer J. Camarasa.  0.30-m f/4 reflector +
        CCD.
    G58 Chabot Space and Science Center, Oakland.  Observer G. McKeegan.  0.9-m
        f/4.5 Cassegrain + CCD.
    H21 Astronomical Research Observatory, Westfield.  Observer R. Holmes.
        Measurers S. Foglia, L. Buzzi, T. Linder, R. Holmes.  0.76-m f/3.0
        astrograph + CCD.
    I52 Steward Observatory, Mt. Lemmon Station.  Observers D. C. Fuls, R. A.
        Kowalski.  Measurers E. J. Christensen, G. A. Farneth, D. C. Fuls, A. R.
        Gibbs, A. D. Grauer, H. Groeller, R. A. Kowalski, S. M. Larson, G. J.
        Leonard, T. A. Pruyne, D. Rankin, R. L. Seaman, F. C. Shelly, K. W.
        Wierzchos.  1.0-m reflector + CCD.
    I93 St Pardon de Conques.  Observer F. Losse.  0.40-m f/3.7 reflector + CCD.
    J95 Great Shefford.  Observer P. Birtwhistle.  0.41-m f/6.3 Schmidt-Cassegrain
        + CCD.
    K38 M57 Observatory, Saltrio.  Observer G. Baj.  0.3-m f/5.5 Ritchey-Chretien
        + CCD.
    K87 Dettelbach Vineyard Observatory.  Observer B. Haeusler.  0.3-m f/5.7
        Schmidt-Cassegrain + CCD.
    K96 Savelli Observatory.  Observers A. Brosio, A. De Pieri.  0.5-m f/8.0
        Ritchey-Chretien + CCD.
    L01 Visnjan Observatory, Tican.  Observer K. Korlevic.  1.0-m f/2.9 reflector
        + CCD.
    N88 Xingming Observatory #3, Nanshan.  Observer X. Gao.  Measurer Q.-Z. Ye.
        0.6-m f/8 Ritchey-Chretien + CCD.
    T05 ATLAS-HKO, Haleakala.  Observers L. Denneau, J. Tonry, A. Heinze, H.
        Weiland, H. Flewelling.  Measurers L. Denneau, J. Tonry, A. Heinze, H.
        Weiland, H. Flewelling, B. Stalder, A. Fitzsimmons, J. Robinson, N.
        Erasmus.  0.5-m reflector + CCD.
    Z80 Northolt Branch Observatory.  Observer G. Wells.  Measurers G. Wells, D.
        Bamberger.  0.25-m f/8.0 Ritchey-Chretien + CCD.
    
    Orbital elements:
    2020 KQ5                                                 Earth MOID = 0.0765 AU
    Epoch 2020 May 26.0 TT = JDT 2458995.5                  Bell                    
    M  13.76857              (2000.0)            P               Q                  
    n   0.23973128     Peri.   29.15661     -0.64104381     -0.75908651             
    a   2.5663719      Node   100.95233     +0.67990112     -0.63017227             
    e   0.8483627      Incl.    6.63034     +0.35608608     -0.16331130             
    P   4.11           H   20.21          G   0.15           U   9                  
    Residuals in seconds of arc
    200525 T05  0.4-  0.2-    200526 L01  0.2-  0.4+    200526 595  0.3+  0.6-
    200525 T05  0.0+  0.2-    200526 L01  0.2-  0.1+    200526 203  0.1-  0.2-
    200525 T05  0.5+  0.1-    200526 L01  0.2-  0.1+    200526 595  0.1+  0.3-
    200525 T05  0.3+  0.5-    200526 L01  0.2-  0.1-    200526 203  0.2-  0.1+
    200525 N88  0.2-  0.1-    200526 L01  0.1-  0.0-    200526 B49  0.1+  0.4+
    200525 N88  0.1-  0.1-    200526 J95  0.2-  0.1+    200526 203  0.2-  0.2+
    200525 N88  0.0+  0.1-    200526 J95  0.0-  0.1-    200526 B49  0.0-  0.2-
    200525 N88  0.1-  1.0-    200526 J95  0.1+  0.0-    200526 B49  0.5+  0.2-
    200525 K96  0.9+  0.8-    200526 J95  0.1+  0.2-    200526 118  0.3-  0.7+
    200525 I93  0.1-  0.2+    200526 I52  0.1-  0.0-    200526 118  0.1-  1.4-
    200525 A17  0.4-  0.2+    200526 I52  0.2-  0.1+    200526 118  0.6+  1.6-
    200525 K96  0.2-  0.3+    200526 I52  0.0+  0.1+    200527 K87  0.3+  0.8+
    200525 I93  0.2-  0.4+    200526 I52  0.1-  0.0-    200527 K87  0.4-  0.3+
    200525 A17  0.1-  0.1-    200526 H21  0.0-  0.1-    200527 K38  0.2-  0.3-
    200525 I93  0.1-  0.3+    200526 H21  0.2+  0.1-    200527 K87  0.0+  0.1-
    200525 A17  0.2-  0.4+    200526 H21  0.1+  0.1+    200527 K38  0.1-  0.0+
    200525 204  0.2-  0.6+    200526 H21  0.1-  0.3+    200527 J95  0.2-  0.0+
    200525 Z80  0.2+  0.2-    200526 G58  0.2-  0.0+    200527 J95  0.4-  0.1-
    200525 204  0.1-  0.4-    200526 G58  0.2-  0.0-    200527 K38  0.1+  0.4-
    200525 Z80  0.0+  0.7+    200526 G58  0.0-  0.3+    200527 J95  0.4-  0.1+
    200526 Z80  1.1+  0.1+    200526 G58  0.2-  0.1-    200527 K38  0.4-  0.3+
    200526 958  0.1-  0.2+    200526 673  0.0+  0.0+    200527 I52  0.1-  0.1-
    200526 958  0.0+  0.1+    200526 673  0.0+  0.0+    200527 I52  0.4-  0.3-
    200526 958  0.1+  0.2-    200526 673  0.2+  0.1-    200527 I52  2.1+  1.4+
    200526 L01  0.1-  0.1-    200526 595  0.1-  0.1+    200527 I52  0.6-  0.2+
    Ephemeris:
    2020 KQ5                 a,e,i = 2.57, 0.85, 7                   q = 0.3892
    Date    TT    R. A. (2000) Decl.     Delta      r    Elong.  Phase     V
    2020 04 27    00 37 18.3 +20 35 43   0.2812  0.7612    25.0   146.0    24.6
    ...
    2020 05 12    21 18 21.4 +12 01 01   0.1726  1.0122    85.8    84.4    19.4
    ...
    2020 05 20    19 08 14.7 +00 34 27   0.1941  1.1389   126.8    45.3    18.7
    ...
    2020 05 26    18 00 53.7 -05 47 39   0.2449  1.2304   149.5    24.7    18.8
    2020 05 27    17 52 15.3 -06 35 22   0.2554  1.2454   152.5    22.1    18.8
    2020 05 28    17 44 14.5 -07 19 13   0.2663  1.2603   155.3    19.7    18.8
    ...
    2020 06 03    17 06 58.8 -10 37 58   0.3399  1.3479   167.2     9.6    19.1
    ...
    2020 06 11    16 36 59.9 -13 15 56   0.4542  1.4605   166.2     9.5    19.9
    ...
    2020 06 26    16 11 35.7 -15 57 10   0.7039  1.6598   149.0    18.4    21.5
    
    M. P. C. Staff               (C) Copyright 2020 MPC           M.P.E.C. 2020-K194
    


    Read MPEC 2020-K193 Read MPEC 2020-K195


    MPEC number:

    Enter an MPEC number in one of the following forms:

    • 1997-B01 (the full form)
    • J97B01 (the packed version of the full form)
    • B01 (the abbreviated form)